This is the latest recevied weather packets stored in our database for station/object SV9TNF-52. If no packets are shown the sender has not sent any weather packets the latest 10 day(s).
| Time | Temp. | Humidity | Pressure | Rain* | Wind** | Luminosity | Snow |
|---|---|---|---|---|---|---|---|
| 1787953893 | 26.11° C | 67% | 1020.3 hPa | 0 mm | 2.68 m/s, 149° | - | - |
| 1787953593 | 26.11° C | 69% | 1020 hPa | 0 mm | 7.15 m/s, 126° | - | - |
| 1787953293 | 25.56° C | 72% | 1020 hPa | 0 mm | 4.92 m/s, 52° | - | - |
| 1787952993 | 25.56° C | 74% | 1020 hPa | 0 mm | 8.05 m/s, 173° | - | - |
| 1787952693 | 25° C | 75% | 1020 hPa | 0 mm | 5.81 m/s, 234° | - | - |
| 1787952393 | 25° C | 76% | 1020 hPa | 0 mm | 5.81 m/s, 197° | - | - |
| 1787952092 | 25° C | 76% | 1020.3 hPa | 0 mm | 5.81 m/s, 181° | - | - |
| 1787951792 | 25° C | 76% | 1020.3 hPa | 0 mm | 5.81 m/s, 201° | - | - |
| 1787951492 | 25° C | 76% | 1020.3 hPa | 0 mm | 5.36 m/s, 196° | - | - |
| 1787951192 | 25° C | 76% | 1020.3 hPa | 0 mm | 6.71 m/s, 208° | - | - |
| 1787950892 | 25° C | 76% | 1020.3 hPa | 0 mm | 5.81 m/s, 172° | - | - |
| 1787950592 | 25° C | 76% | 1020.3 hPa | 0 mm | 4.02 m/s, 234° | - | - |
| 1787950292 | 25.56° C | 76% | 1020.3 hPa | 0 mm | 4.92 m/s, 173° | - | - |
| 1787949992 | 25.56° C | 75% | 1020.3 hPa | 0 mm | 8.49 m/s, 152° | - | - |
| 1787949692 | 25.56° C | 75% | 1020.3 hPa | 0 mm | 3.58 m/s, 123° | - | - |
| 1787949392 | 25.56° C | 75% | 1020.7 hPa | 0 mm | 4.47 m/s, 167° | - | - |
| 1787949092 | 25.56° C | 74% | 1020.7 hPa | 0 mm | 1.79 m/s, 200° | - | - |
| 1787948791 | 25.56° C | 74% | 1020.7 hPa | 0 mm | 4.02 m/s, 196° | - | - |
| 1787948491 | 25.56° C | 74% | 1020.3 hPa | 0 mm | 2.68 m/s, 225° | - | - |
| 1787948191 | 25.56° C | 74% | 1020.3 hPa | 0 mm | 3.58 m/s, 149° | - | - |
| 1787947891 | 25.56° C | 74% | 1020.3 hPa | 0 mm | 3.13 m/s, 220° | - | - |
| 1787947591 | 25.56° C | 73% | 1020.3 hPa | 0 mm | 1.79 m/s, 233° | - | - |
| 1787947291 | 25.56° C | 73% | 1020.3 hPa | 0 mm | 3.13 m/s, 235° | - | - |
| 1787946991 | 25.56° C | 73% | 1020.7 hPa | 0 mm | 3.13 m/s, 28° | - | - |
| 1787946691 | 25.56° C | 73% | 1020.7 hPa | 0 mm | 5.81 m/s, 225° | - | - |
* Rain latest hour (hover to see other rain measurements)
** Current wind speed in m/s (hover to see current wind gust speed)